Wetbulb
57.13 56.44 56.11 56.15 55.66 55.76 56.20 56.20 56.24 56.69 56.68 56.72 56.58 56.47 56.71 56.39 56.56 56.78 57.19 57.40 57.62 57.45 57.84 58.65 59.36 60.65 59.53 51.21 52.67 73.50 78.65 77.90 73.41 71.49 69.92 68.04 64.91 64.12 61.35 62.89 63.71 62.43 63.33 63.27 64.17 64.25 64.11
56.87 56.65 56.12 56.09 55.90 55.70 56.46 56.40 56.39 56.38 56.39 56.32 56.15 56.01 55.96 55.99 56.12 56.50 56.71 57.26 57.02 56.96 57.69 58.59 59.62 60.72 57.34 48.30 58.78 75.07 75.85 73.50 71.71 70.44 69.10 67.35 64.58 66.23 64.15 63.20 62.39 63.30 62.91 62.88 63.88 63.75 63.80
56.61 56.76 56.84 56.39 56.02 55.79 55.80 55.84 55.97 55.86 55.77 55.70 55.74 55.79 56.16 55.90 55.87 56.09 56.21 56.44 56.09 56.68 57.72 59.04 59.89 60.55 53.89 51.05 69.15 74.35 74.35 72.49 72.28 70.04 64.15 67.00 65.84 64.68 65.03 62.92 64.92 63.46 60.38 61.84 62.51 62.89 61.65
57.09 56.87 56.29 56.35 56.23 55.90 55.87 55.75 55.57 55.44 55.27 55.28 55.38 55.29 55.40 55.44 55.38 55.89 55.81 55.41 55.66 57.29 59.32 59.91 60.95 59.99 49.80 53.29 60.15 58.05 72.24 70.28 71.60 71.47 67.24 65.71 66.00 64.98 64.90 65.30 63.53 61.04 61.41 56.90 60.73 61.98 61.79
56.36 56.06 56.14 55.97 56.43 56.44 55.82 55.83 55.74 55.34 55.17 55.20 55.00 54.90 54.82 55.26 55.65 55.54 54.78 54.84 57.00 59.11 62.38 62.50 58.39 54.20 49.07 61.34 56.81 58.68 61.49 61.77 68.17 64.99 65.77 63.72 66.36 63.79 63.57 61.28 59.12 60.35 55.97 56.83 57.76 62.09 61.23
56.77 56.35 56.37 56.60 56.30 55.96 55.89 55.75 55.73 55.46 55.69 55.74 55.55 55.45 55.34 55.30 54.95 54.34 53.91 54.99 57.01 58.73 61.23 62.14 61.30 53.37 52.98 53.60 57.23 56.57 60.15 60.15 61.06 62.87 60.40 62.48 63.08 61.20 60.56 60.11 54.10 55.89 56.50 56.84 56.64 60.17 61.07
57.06 56.90 56.74 56.76 56.12 55.75 55.54 55.40 55.35 55.37 55.38 55.70 55.42 55.26 55.09 54.69 54.11 53.42 53.44 55.05 55.11 54.54 55.20 53.62 49.91 48.05 51.44 57.69 58.88 56.99 57.80 58.25 61.36 62.14 59.91 61.65 59.28 57.11 59.06 60.41 58.89 59.56 58.66 57.13 59.28 61.30 59.98
56.56 56.36 56.08 55.96 55.68 55.52 55.50 55.41 55.46 55.45 55.21 55.33 55.52 54.83 54.54 53.93 53.25 53.12 52.38 52.94 50.75 51.69 49.68 53.88 54.15 54.25 56.13 57.69 55.18 56.32 57.34 54.86 57.33 55.62 59.31 59.33 56.68 59.87 59.88 60.25 59.52 60.12 58.41 57.31 59.43 61.25 60.22
56.46 56.15 56.01 55.94 55.99 55.93 55.66 55.51 55.68 55.74 55.74 55.56 55.29 54.68 53.91 53.25 52.58 52.03 50.71 52.63 53.64 53.64 49.79 52.70 54.33 54.58 55.92 57.52 54.26 54.48 55.56 54.32 54.67 53.28 55.42 53.57 55.72 58.42 58.83 58.85 58.89 58.80 58.30 57.51 57.46 59.95 60.08
56.36 56.18 56.20 55.79 56.25 56.32 56.16 55.80 55.70 55.60 55.45 55.21 55.19 54.44 53.29 51.64 50.55 49.12 52.36 53.26 53.22 53.06 47.17 47.70 51.48 54.36 55.90 56.77 51.88 57.68 55.72 55.00 52.76 52.57 54.36 53.83 55.43 56.88 57.75 57.17 59.34 56.06 59.74 59.72 58.81 58.15 54.80
56.34 56.86 56.55 56.35 56.28 55.98 56.07 55.80 55.58 55.45 55.25 55.15 54.72 53.85 52.23 51.18 49.29 48.65 51.68 52.43 53.37 51.12 37.89 46.67 51.69 57.01 55.14 52.86 52.25 53.43 55.35 54.05 53.35 52.62 54.37 54.61 55.56 57.30 56.76 57.62 60.28 57.33 61.36 60.85 59.75 57.60 56.86
56.97 57.07 55.94 55.83 55.59 55.75 55.88 55.51 55.27 54.93 54.91 54.60 54.07 52.80 51.67 49.44 48.89 50.78 51.82 52.52 52.82 45.75 37.30 46.98 51.88 51.97 51.80 52.18 51.33 52.93 53.56 55.53 55.80 54.82 55.36 55.43 58.36 59.70 59.31 60.06 61.15 61.63 59.99 58.74 58.21 57.34 52.72
57.31 56.42 55.93 55.60 55.57 55.82 55.64 55.35 55.13 54.72 54.40 53.72 52.51 51.33 50.31 51.06 48.68 51.42 52.41 52.91 46.73 40.36 47.21 46.22 47.05 49.20 49.79 48.88 49.70 51.54 51.13 51.38 51.26 49.30 50.15 53.40 54.42 60.07 61.77 58.58 60.48 58.96 57.52 51.74 50.22 50.26 50.37
56.66 56.25 55.72 56.03 56.02 55.80 55.48 55.21 54.97 54.33 53.87 52.66 50.98 49.75 50.38 51.02 52.16 51.85 52.27 50.61 40.79 43.20 44.20 48.88 47.31 47.16 47.79 48.10 48.63 48.92 50.03 49.77 51.97 52.58 51.06 49.39 50.13 57.25 60.66 59.51 58.09 58.19 57.19 53.18 46.24 47.54 50.29
56.17 55.47 55.14 55.85 55.90 55.38 55.28 55.09 54.60 54.07 53.32 52.01 49.55 49.79 49.96 52.25 51.99 51.64 51.62 45.19 44.36 44.24 47.91 46.21 47.41 44.98 46.76 46.58 47.12 48.79 49.82 50.38 51.95 53.59 51.72 50.18 51.08 56.59 59.46 59.80 60.79 56.00 54.53 55.75 52.50 50.97 51.46
55.64 55.16 55.24 56.05 55.56 55.11 55.28 54.93 54.36 53.81 53.04 51.54 47.09 47.76 50.58 52.58 52.62 51.36 49.34 43.85 46.28 47.42 48.84 47.35 45.19 45.61 44.77 46.32 46.04 47.08 48.39 50.82 50.62 54.55 56.93 54.52 51.53 55.02 57.67 60.35 59.41 58.72 58.90 53.52 54.01 48.17 46.83
55.34 55.24 55.35 55.73 55.32 55.22 55.28 54.85 54.03 53.20 52.33 50.39 47.28 46.76 51.69 52.46 49.93 50.51 43.70 45.80 46.29 49.20 49.81 46.35 45.48 44.08 45.29 45.13 46.29 45.94 48.00 48.18 51.40 52.78 54.28 54.49 53.86 53.05 57.92 56.63 56.31 56.63 56.04 54.19 54.84 52.48 50.16
55.10 55.21 55.75 55.29 55.02 55.14 55.08 54.78 53.83 52.53 51.33 48.50 44.28 42.62 51.69 52.37 45.84 43.08 44.15 45.98 45.52 48.14 49.37 48.20 47.86 46.35 44.60 44.61 44.57 47.16 46.86 48.72 50.10 54.03 51.71 54.71 53.54 52.63 54.31 53.34 58.19 58.93 57.81 57.65 53.15 51.69 52.21
55.40 55.17 54.95 55.03 55.00 55.12 55.04 54.50 53.44 52.13 51.34 47.37 41.65 42.09 52.01 52.52 42.62 43.04 44.08 45.05 47.51 46.75 47.43 46.90 46.17 47.02 47.33 46.12 44.88 46.80 48.52 51.49 51.58 52.81 53.01 53.43 52.18 49.14 49.46 54.77 57.04 56.60 57.35 57.27 55.80 55.70 53.21
55.09 54.59 54.43 54.36 54.80 54.95 54.98 54.40 53.30 52.43 51.19 47.79 43.70 41.19 50.74 50.53 47.82 44.49 43.87 44.30 44.32 48.35 46.94 47.39 46.83 47.74 47.08 46.37 47.40 45.71 46.97 49.59 50.23 51.98 60.42 57.94 52.42 51.73 49.78 53.01 56.18 54.52 55.83 56.39 57.02 53.92 54.05
54.70 54.90 54.56 54.10 54.20 54.40 54.55 54.44 53.74 52.77 50.64 48.67 43.68 41.96 45.30 45.48 47.61 47.54 47.59 47.29 45.03 44.32 48.78 49.60 47.91 47.94 46.98 44.69 45.41 45.48 46.85 48.73 51.35 56.88 54.73 53.61 50.25 51.63 53.28 53.23 56.19 55.57 55.53 55.35 55.50 57.14 54.57
54.70 54.29 54.09 54.01 54.70 53.88 54.38 54.22 53.89 52.93 49.14 48.18 43.93 42.30 44.55 43.57 45.52 46.11 45.89 46.14 45.93 48.13 49.96 49.49 48.48 49.19 48.60 47.03 46.88 45.72 48.30 49.49 49.23 52.08 51.32 51.54 51.21 51.84 50.80 51.49 52.40 52.19 53.98 56.21 56.35 55.55 55.64
53.47 53.33 53.41 53.52 53.59 53.59 53.77 54.35 53.95 52.82 49.58 45.94 45.76 45.66 44.22 41.51 43.66 45.20 46.99 48.37 47.68 49.44 50.49 51.93 51.51 50.61 49.77 51.34 53.51 54.15 54.24 54.34 52.63 49.18 48.85 50.27 50.60 50.66 48.99 51.57 51.42 49.57 53.50 56.27 57.07 57.95 58.18
53.15 53.05 53.41 53.41 53.40 53.21 53.46 54.13 54.16 53.23 51.49 49.34 47.20 45.78 40.18 36.63 41.26 42.69 46.84 46.93 47.26 49.08 49.32 52.64 53.31 51.99 54.73 58.43 58.18 57.22 55.71 54.87 54.65 53.13 52.57 49.50 49.74 50.97 49.62 51.86 45.00 53.13 57.24 58.18 58.02 59.00 59.28
53.00 52.71 52.65 53.00 53.05 53.31 53.24 53.80 54.13 52.98 52.39 51.19 48.36 44.71 40.42 35.96 40.43 41.08 42.47 44.56 47.30 48.73 48.61 50.37 53.39 56.38 58.59 56.23 51.65 49.67 48.94 50.73 51.62 54.07 52.42 52.57 50.55 49.47 48.42 48.67 51.57 53.50 56.12 56.29 56.95 57.64 59.56
52.43 52.36 52.66 52.76 52.83 53.13 53.41 53.42 54.13 52.84 52.09 52.23 50.92 49.68 44.73 38.37 38.05 41.17 41.31 44.88 43.18 44.89 48.58 52.70 56.68 56.83 57.24 53.60 50.63 45.91 43.69 46.48 47.32 46.85 53.46 52.54 53.01 50.34 49.72 47.00 45.78 53.92 58.51 60.67 59.41 52.59 60.49
52.24 52.59 52.51 52.67 53.11 53.33 53.44 53.53 53.55 53.18 52.24 52.20 50.21 50.84 45.84 39.33 41.06 41.82 38.85 41.67 48.07 47.96 47.56 49.83 50.67 51.91 54.72 50.62 47.87 46.70 45.52 50.64 47.30 48.03 46.32 47.02 48.15 47.74 48.77 48.83 51.72 57.74 58.45 60.96 53.54 56.73 61.14
52.31 52.17 52.34 52.96 52.94 53.18 52.96 53.20 53.25 52.92 52.96 52.07 49.80 50.10 45.99 41.69 41.83 44.34 44.40 42.40 45.27 47.65 44.68 49.23 49.35 50.36 50.86 48.26 48.77 49.00 49.40 50.17 49.11 52.40 50.09 49.93 48.76 47.83 49.79 49.09 48.64 59.79 58.69 56.46 63.26 62.90 64.33
52.09 52.15 52.31 52.94 53.10 53.01 52.95 52.65 52.72 52.73 52.65 52.59 46.90 51.49 50.52 44.40 42.33 46.51 46.16 47.67 46.92 47.12 46.04 48.31 49.56 47.97 49.81 47.91 49.46 48.70 50.24 52.83 51.19 47.58 51.33 50.88 54.48 52.14 52.61 52.44 62.17 61.58 62.36 64.19 64.87 65.71 66.52
MSLP
1021.55 1021.30 1021.06 1020.85 1020.56 1020.28 1019.97 1019.59 1019.15 1018.75 1018.31 1017.80 1017.33 1016.92 1016.47 1015.93 1015.32 1014.67 1013.94 1013.20 1012.49 1012.17 1011.95 1011.54 1011.01 1010.46 1009.45 1008.26 1006.24 1005.40 1005.32 1005.65 1005.78 1005.78 1005.86 1006.00 1005.88 1005.91 1006.17 1006.62 1006.72 1006.41 1006.58 1006.90 1007.40 1007.89 1008.46
1021.64 1021.40 1021.13 1020.89 1020.69 1020.34 1020.01 1019.65 1019.23 1018.79 1018.33 1017.80 1017.19 1016.64 1016.14 1015.68 1015.11 1014.42 1013.72 1012.82 1012.27 1011.78 1011.52 1011.20 1010.94 1010.64 1009.69 1007.49 1005.44 1005.42 1005.68 1005.99 1005.80 1005.83 1006.14 1006.14 1005.94 1005.99 1006.25 1006.59 1006.67 1006.74 1006.89 1007.43 1007.94 1008.18 1008.79
1021.73 1021.46 1021.19 1020.97 1020.78 1020.49 1020.15 1019.76 1019.35 1018.91 1018.46 1017.95 1017.24 1016.55 1015.89 1015.31 1014.69 1013.94 1013.27 1012.50 1011.87 1011.26 1010.89 1010.69 1010.63 1010.48 1009.10 1006.21 1005.55 1005.52 1005.86 1006.05 1006.12 1006.10 1006.10 1006.23 1006.06 1005.96 1006.35 1006.56 1007.06 1007.07 1007.31 1007.87 1008.48 1008.66 1009.02
1021.79 1021.48 1021.28 1021.03 1020.78 1020.54 1020.22 1019.81 1019.37 1018.93 1018.46 1017.89 1017.23 1016.53 1015.79 1015.11 1014.35 1013.52 1012.73 1012.09 1011.30 1010.70 1010.15 1010.04 1010.23 1010.05 1007.58 1005.50 1005.59 1005.52 1005.81 1006.13 1006.40 1006.39 1006.27 1006.15 1005.89 1006.25 1006.46 1007.14 1007.18 1007.17 1007.72 1008.07 1008.79 1008.91 1009.42
1021.85 1021.60 1021.32 1021.02 1020.68 1020.42 1020.17 1019.78 1019.37 1018.92 1018.39 1017.78 1017.09 1016.37 1015.65 1014.86 1014.01 1013.14 1012.27 1011.57 1010.69 1010.26 1009.93 1009.93 1009.89 1009.26 1006.65 1005.48 1005.22 1004.99 1005.13 1005.40 1006.04 1006.46 1006.36 1006.11 1005.96 1006.33 1006.70 1006.68 1007.00 1007.40 1007.59 1008.04 1008.75 1008.93 1009.10
1021.82 1021.54 1021.27 1020.98 1020.69 1020.39 1020.07 1019.72 1019.29 1018.82 1018.24 1017.58 1016.88 1016.14 1015.28 1014.49 1013.63 1012.84 1011.87 1010.97 1010.43 1010.25 1010.02 1009.81 1009.33 1009.00 1006.32 1005.52 1004.96 1005.01 1005.27 1005.26 1005.43 1005.89 1005.99 1005.95 1005.93 1006.14 1006.62 1006.31 1006.48 1007.02 1007.51 1008.04 1008.16 1008.69 1008.86
1021.77 1021.48 1021.25 1020.96 1020.69 1020.37 1020.05 1019.65 1019.18 1018.71 1018.10 1017.36 1016.65 1015.96 1015.12 1014.25 1013.44 1012.72 1011.70 1010.46 1010.76 1010.34 1009.56 1008.51 1008.13 1007.55 1006.32 1005.56 1005.18 1004.58 1004.82 1004.95 1004.91 1005.13 1005.17 1005.65 1005.44 1005.33 1005.43 1005.83 1006.32 1006.61 1007.04 1007.56 1008.17 1008.56 1008.77
1021.83 1021.59 1021.35 1021.07 1020.73 1020.39 1020.05 1019.64 1019.12 1018.60 1018.04 1017.31 1016.58 1015.90 1015.01 1014.12 1013.24 1012.36 1012.03 1011.53 1012.36 1012.40 1010.22 1008.19 1007.69 1007.32 1006.49 1006.14 1005.18 1004.31 1004.35 1004.32 1004.31 1004.57 1005.21 1005.48 1004.91 1004.80 1005.21 1005.69 1006.13 1006.55 1006.97 1007.78 1008.42 1008.74 1008.85
1021.87 1021.64 1021.39 1021.13 1020.78 1020.40 1020.04 1019.57 1019.02 1018.41 1017.81 1017.13 1016.44 1015.85 1015.05 1013.93 1012.97 1012.32 1012.57 1012.26 1012.41 1012.00 1010.74 1007.83 1006.90 1006.27 1005.74 1005.61 1004.69 1003.83 1003.85 1003.78 1003.83 1004.30 1004.63 1004.60 1004.55 1004.58 1005.12 1005.63 1005.81 1006.40 1006.52 1007.32 1007.91 1008.80 1009.20
1021.88 1021.64 1021.39 1021.13 1020.81 1020.39 1020.00 1019.55 1018.97 1018.34 1017.68 1016.96 1016.22 1015.72 1015.14 1014.09 1013.17 1013.53 1012.55 1012.32 1012.19 1011.86 1010.08 1007.33 1006.25 1005.14 1005.30 1004.98 1004.27 1003.45 1003.40 1003.16 1003.80 1003.84 1004.46 1004.49 1004.48 1004.57 1004.92 1005.26 1005.49 1005.90 1006.60 1007.22 1007.77 1008.39 1008.85
1021.75 1021.52 1021.33 1021.07 1020.74 1020.37 1019.94 1019.47 1018.91 1018.26 1017.58 1016.86 1016.10 1015.63 1015.28 1014.99 1014.37 1013.43 1012.73 1012.41 1011.96 1011.56 1008.91 1006.58 1005.41 1004.70 1004.80 1004.40 1003.55 1003.31 1003.18 1002.97 1002.82 1003.49 1004.21 1003.84 1004.24 1004.60 1004.86 1005.16 1005.60 1006.05 1006.39 1007.04 1007.76 1008.45 1008.77
1021.57 1021.35 1021.22 1021.01 1020.70 1020.30 1019.82 1019.29 1018.66 1018.00 1017.28 1016.58 1015.86 1015.47 1015.21 1014.83 1014.52 1012.85 1012.48 1012.12 1011.66 1010.41 1007.54 1005.66 1004.87 1004.48 1004.47 1004.04 1003.33 1003.15 1002.91 1002.88 1002.91 1003.36 1003.73 1003.67 1004.07 1004.26 1004.93 1005.37 1005.47 1006.30 1006.64 1007.52 1007.99 1008.21 1008.25
1021.48 1021.32 1021.12 1020.85 1020.50 1020.09 1019.63 1019.14 1018.54 1017.81 1016.95 1016.06 1015.21 1014.74 1014.86 1014.37 1013.11 1012.77 1012.38 1011.57 1010.67 1008.95 1006.94 1005.94 1005.17 1004.61 1004.12 1003.63 1003.18 1002.73 1002.53 1002.49 1002.45 1002.90 1003.06 1003.51 1003.75 1004.49 1004.74 1005.46 1006.34 1006.25 1005.95 1006.81 1007.45 1007.81 1007.98
1021.46 1021.29 1021.09 1020.74 1020.33 1019.88 1019.38 1018.82 1018.22 1017.51 1016.67 1015.58 1014.73 1013.90 1013.67 1013.37 1013.04 1012.75 1011.70 1010.78 1009.53 1007.86 1006.82 1006.18 1005.61 1005.03 1004.16 1003.52 1003.07 1002.70 1002.37 1002.12 1002.72 1002.29 1002.57 1002.90 1003.43 1003.91 1004.29 1004.53 1004.99 1005.87 1005.88 1005.81 1006.38 1007.33 1007.67
1021.50 1021.35 1021.09 1020.72 1020.29 1019.83 1019.31 1018.71 1018.02 1017.22 1016.17 1015.20 1014.18 1013.65 1013.45 1013.03 1012.86 1012.81 1011.31 1009.82 1008.20 1007.58 1006.95 1006.34 1005.70 1005.03 1004.32 1003.83 1003.31 1002.49 1002.04 1001.66 1001.87 1001.82 1001.74 1002.52 1002.97 1003.60 1003.98 1004.41 1004.72 1005.89 1006.18 1006.61 1006.61 1007.79 1007.09
1021.46 1021.23 1020.96 1020.62 1020.23 1019.76 1019.28 1018.74 1018.10 1017.24 1016.08 1015.01 1014.56 1013.86 1013.11 1012.92 1012.74 1012.05 1010.77 1009.18 1008.47 1007.83 1007.14 1006.74 1005.84 1005.60 1004.61 1004.15 1003.52 1002.80 1002.22 1001.79 1001.63 1001.65 1001.20 1002.18 1002.54 1003.37 1004.20 1004.25 1005.00 1004.81 1005.43 1005.86 1006.04 1006.03 1005.72
1021.50 1021.23 1020.90 1020.54 1020.14 1019.69 1019.20 1018.67 1018.02 1017.21 1015.98 1014.91 1014.40 1013.47 1013.23 1013.12 1012.85 1011.47 1010.27 1009.28 1008.42 1007.80 1007.48 1006.89 1006.38 1005.84 1005.34 1004.64 1004.01 1003.16 1002.31 1002.21 1001.65 1001.82 1001.86 1002.13 1002.07 1003.37 1003.70 1003.45 1003.54 1004.75 1004.70 1005.32 1005.49 1005.26 1004.48
1021.48 1021.19 1020.91 1020.59 1020.20 1019.74 1019.25 1018.73 1018.10 1017.30 1016.21 1015.10 1014.99 1013.84 1013.25 1013.18 1012.56 1012.04 1010.41 1009.50 1008.61 1007.73 1007.43 1006.99 1006.67 1006.22 1005.76 1005.27 1004.47 1003.94 1002.93 1002.47 1002.13 1001.33 1001.48 1001.87 1001.68 1002.17 1002.82 1003.16 1003.34 1003.27 1003.38 1003.73 1004.07 1004.55 1004.46
1021.41 1021.13 1020.89 1020.56 1020.22 1019.84 1019.41 1018.95 1018.39 1017.80 1017.23 1016.78 1015.94 1015.05 1013.39 1013.03 1012.36 1011.74 1010.69 1009.61 1008.68 1007.98 1007.33 1006.97 1006.59 1006.44 1006.31 1005.86 1005.55 1004.85 1004.03 1003.51 1002.78 1001.97 1001.28 1001.63 1001.53 1001.72 1002.40 1002.87 1003.18 1002.70 1003.12 1003.16 1003.57 1003.58 1003.19
1021.38 1021.10 1020.87 1020.52 1020.15 1019.75 1019.38 1018.97 1018.56 1018.07 1017.55 1017.22 1016.39 1015.24 1013.67 1013.13 1013.06 1012.17 1010.99 1009.63 1008.60 1007.90 1007.41 1007.01 1006.61 1006.67 1006.54 1006.26 1006.08 1005.52 1004.79 1004.13 1003.63 1002.77 1002.19 1001.60 1001.00 1001.03 1000.87 1000.89 1001.54 1002.03 1002.37 1002.72 1002.39 1002.30 1002.39
1021.34 1021.08 1020.80 1020.48 1020.13 1019.80 1019.54 1019.18 1018.75 1018.30 1017.81 1017.53 1017.02 1016.35 1016.02 1014.04 1013.02 1012.38 1011.73 1010.42 1008.79 1007.79 1007.47 1007.15 1006.89 1006.67 1006.52 1006.42 1006.13 1005.68 1005.33 1004.52 1003.79 1003.40 1002.62 1001.93 1001.18 1001.48 1001.02 1001.04 1001.07 1001.17 1001.53 1001.92 1001.70 1001.27 1001.32
1021.22 1020.94 1020.63 1020.29 1019.94 1019.72 1019.49 1019.20 1018.88 1018.58 1018.21 1017.90 1017.67 1017.35 1016.68 1015.49 1014.18 1013.03 1011.67 1010.33 1009.31 1008.23 1007.50 1007.02 1006.90 1006.57 1006.73 1006.45 1006.08 1005.84 1005.64 1005.04 1004.38 1003.82 1003.30 1002.94 1001.89 1001.52 1000.87 1001.26 1000.95 1000.67 1000.67 1001.02 1001.34 1001.50 1001.20
1021.12 1020.81 1020.50 1020.15 1019.83 1019.52 1019.27 1019.05 1018.86 1018.73 1018.53 1018.32 1018.42 1018.16 1017.50 1015.72 1014.42 1013.30 1011.57 1010.35 1009.22 1008.78 1007.81 1007.20 1006.91 1006.66 1006.52 1006.50 1006.32 1006.03 1006.17 1005.77 1005.48 1005.31 1004.40 1003.56 1002.79 1001.84 1000.77 1000.99 1000.89 1000.32 999.74 1000.05 1000.45 1000.67 1000.54
1020.92 1020.63 1020.30 1019.98 1019.63 1019.33 1019.06 1018.80 1018.57 1018.58 1018.74 1018.79 1018.65 1018.53 1017.88 1015.94 1014.83 1013.27 1012.08 1011.43 1010.25 1009.54 1008.50 1007.49 1007.28 1006.90 1006.77 1006.77 1006.41 1005.89 1005.72 1005.38 1005.10 1005.01 1004.97 1004.20 1003.51 1002.50 1001.23 1001.10 999.96 998.66 998.59 998.96 999.28 999.87 1000.50
1020.67 1020.42 1020.14 1019.75 1019.38 1019.06 1018.77 1018.44 1018.19 1018.17 1018.36 1018.68 1018.74 1018.78 1018.26 1016.66 1015.22 1013.96 1012.89 1011.96 1010.82 1010.06 1009.26 1008.22 1007.40 1006.97 1006.97 1006.73 1006.31 1005.45 1004.79 1004.57 1003.46 1003.86 1004.47 1004.33 1003.97 1002.76 1001.33 1000.20 999.44 998.64 998.43 998.37 998.77 998.95 999.80
1020.55 1020.23 1019.92 1019.54 1019.15 1018.80 1018.42 1018.04 1017.85 1017.81 1017.82 1018.07 1018.18 1018.33 1018.26 1017.41 1015.24 1014.64 1013.63 1012.53 1011.56 1010.44 1009.51 1008.24 1007.85 1007.54 1007.06 1006.79 1006.26 1004.77 1003.03 1002.04 1002.15 1003.18 1003.54 1003.97 1003.92 1003.02 1001.62 999.68 998.12 997.67 997.12 997.30 997.51 998.00 998.71
1020.24 1019.90 1019.57 1019.24 1018.87 1018.46 1018.10 1017.79 1017.54 1017.33 1017.33 1017.62 1017.63 1017.67 1017.81 1017.06 1015.77 1015.49 1014.53 1013.17 1011.73 1010.81 1010.14 1009.27 1008.57 1007.96 1007.43 1006.69 1005.76 1004.45 1002.59 1001.56 1000.78 1001.09 1002.74 1003.36 1003.32 1002.13 1000.87 999.05 997.31 996.76 996.74 997.47 997.72 997.24 998.02
1019.85 1019.59 1019.21 1018.84 1018.54 1018.18 1017.80 1017.46 1017.14 1016.92 1016.84 1017.15 1017.01 1017.13 1017.41 1016.27 1015.38 1015.14 1014.56 1013.90 1012.73 1011.66 1010.58 1010.25 1009.40 1008.60 1007.86 1007.00 1005.69 1004.35 1002.77 1000.98 1000.19 999.66 999.89 1000.23 1000.62 1000.59 1000.11 998.52 996.73 995.87 996.89 996.28 996.35 996.83 997.31
1019.51 1019.23 1018.87 1018.56 1018.23 1017.84 1017.51 1017.15 1016.85 1016.53 1016.41 1016.63 1016.76 1016.35 1016.47 1016.31 1015.29 1014.62 1014.21 1013.78 1012.97 1012.56 1012.18 1010.93 1010.01 1009.20 1008.35 1007.41 1006.58 1005.34 1003.28 1001.36 999.85 998.94 998.93 998.43 997.19 997.58 997.92 996.72 995.94 995.66 995.25 995.24 995.58 996.41 997.38
Wind_Speed
14 15 15 16 16 15 15 16 18 18 19 20 20 20 20 21 22 22 23 23 23 22 20 18 18 18 6 3 6 5 12 17 14 11 8 4 1 1 3 4 3 5 4 9 12 12 13
13 14 14 15 16 16 16 16 17 18 19 20 21 21 21 21 22 23 23 23 23 23 20 18 15 12 3 5 2 6 13 15 8 8 7 3 2 2 5 4 5 4 13 15 12 14 11
13 12 13 15 15 15 16 16 17 18 19 19 21 22 22 22 24 24 24 24 25 24 21 16 9 3 2 9 4 6 11 7 8 4 5 2 3 4 1 4 3 12 15 12 9 8 5
14 16 14 14 15 15 16 17 17 18 18 19 20 22 23 24 25 25 25 25 25 22 15 4 6 3 7 2 2 2 5 6 7 1 1 3 6 3 2 5 3 5 5 5 6 6 6
13 13 14 15 16 14 16 17 17 18 18 19 21 22 23 24 25 25 26 25 19 6 4 9 3 1 6 5 3 1 6 3 9 3 2 4 1 4 3 6 4 4 5 5 7 2 6
13 13 14 15 15 16 16 17 17 18 18 19 20 21 23 24 25 25 26 19 5 4 2 3 1 3 3 2 3 1 3 4 4 8 3 3 3 3 3 7 6 8 5 4 6 8 8
13 14 15 15 15 16 16 17 18 19 19 20 21 22 23 25 26 24 13 1 3 3 0 4 1 4 3 8 4 4 5 7 5 4 4 3 5 6 9 10 2 10 9 9 5 7 9
13 14 14 15 15 16 17 18 18 19 20 20 21 22 23 25 25 21 3 5 5 3 8 3 10 8 7 3 4 3 11 8 5 7 6 5 7 7 4 7 5 10 11 6 5 6 8
13 13 14 14 15 16 17 18 18 19 19 20 21 21 23 26 27 3 4 10 4 3 4 5 5 4 4 9 5 8 13 6 10 8 10 5 1 2 10 8 11 7 13 11 8 8 3
11 12 13 14 15 15 16 17 18 19 20 21 22 21 21 28 1 5 1 1 8 4 3 3 4 3 6 5 5 5 9 6 4 13 9 6 1 6 7 8 11 8 9 11 15 10 4
10 11 12 13 14 15 16 17 18 19 20 22 23 22 18 10 6 3 3 8 1 3 3 3 3 1 3 8 6 10 2 3 10 8 7 6 6 7 4 3 11 1 11 13 13 5 5
10 11 13 14 15 16 16 17 18 20 21 22 23 21 19 2 2 5 6 7 3 3 5 2 2 5 6 5 3 5 7 2 4 7 3 3 1 3 4 6 10 17 18 9 5 3 3
10 11 13 14 15 16 16 17 18 20 22 24 25 22 12 2 1 4 6 3 3 5 2 2 2 1 5 7 5 7 14 13 12 12 10 3 4 4 11 13 11 1 12 5 4 4 0
11 12 13 13 15 16 17 18 19 20 22 25 26 18 2 4 4 7 3 3 5 1 4 2 2 2 8 7 6 7 16 18 8 14 7 11 10 10 9 4 10 12 5 2 4 4 4
10 11 12 13 14 15 16 18 19 21 24 26 18 3 1 2 3 3 3 7 4 4 1 4 2 4 7 2 5 7 15 22 18 12 13 10 9 4 3 5 8 7 6 3 7 2 4
10 11 12 12 13 15 16 16 18 20 24 23 5 3 4 7 4 2 3 6 4 3 1 1 2 1 7 3 5 8 12 11 13 9 11 7 9 3 6 6 8 3 12 5 1 6 3
11 12 13 12 13 15 16 17 18 20 24 16 2 1 7 4 4 0 5 6 5 5 1 2 0 2 1 2 3 5 12 3 10 12 4 10 6 5 8 9 11 6 6 5 1 4 4
11 11 11 12 13 15 16 16 17 19 23 7 4 1 4 4 1 1 4 4 1 3 3 3 2 3 2 2 2 3 8 3 1 15 15 7 4 5 3 2 3 3 7 10 5 5 2
12 11 13 13 14 15 15 15 15 15 15 4 3 3 2 2 3 3 3 4 3 4 5 5 4 4 0 1 2 1 2 3 8 8 16 9 7 7 7 4 3 6 5 5 5 4 6
13 12 14 15 14 15 16 16 15 15 12 2 3 2 1 1 1 3 3 4 6 5 4 3 3 2 1 1 0 3 2 3 8 2 6 5 10 10 11 8 6 6 7 9 12 7 6
13 14 14 15 15 15 15 15 14 14 10 2 3 3 3 2 2 3 5 5 7 9 6 8 4 7 5 4 2 4 2 4 1 5 2 6 15 9 14 6 5 5 7 14 15 11 12
14 13 14 14 14 13 14 14 12 12 7 2 4 3 4 4 6 6 5 7 10 5 5 6 4 7 6 5 3 3 4 3 3 8 4 4 8 9 19 8 9 13 9 12 11 5 2
14 14 14 14 14 13 14 13 11 9 4 2 1 1 2 3 3 4 5 9 10 12 8 10 7 7 7 9 10 10 7 12 11 7 4 3 4 7 15 8 10 12 14 15 13 9 8
12 14 15 14 14 13 14 13 11 7 2 1 1 1 3 5 6 8 7 7 9 8 8 1 3 10 2 1 8 8 7 11 13 12 10 2 2 2 10 9 13 13 10 14 19 16 12
14 13 14 15 15 14 14 15 12 7 5 2 1 1 2 5 7 13 16 12 9 6 7 10 11 8 4 3 4 6 5 5 11 15 16 15 5 4 8 12 2 6 6 10 12 15 18
14 14 14 14 15 15 15 15 11 8 4 2 3 3 2 3 6 8 10 7 5 3 5 6 1 3 8 6 6 6 9 10 10 8 9 13 12 5 4 13 15 9 13 9 10 13 17
14 14 14 15 15 15 16 17 15 9 5 4 3 5 2 4 8 12 8 6 6 1 3 4 4 3 6 7 9 8 9 3 9 15 10 9 7 16 7 10 9 10 10 12 11 7 20
13 14 14 15 14 14 15 14 15 13 8 6 3 6 4 4 8 13 13 12 10 4 2 4 4 4 4 8 8 7 7 9 4 8 14 13 12 9 8 9 12 12 12 13 9 2 18
13 13 14 14 14 14 14 14 15 13 6 8 3 3 6 4 5 7 15 20 19 20 8 4 5 4 3 3 1 3 5 4 6 7 5 12 11 10 13 7 2 11 12 17 10 7 14
Wind_Direction
16 11 11 12 9 5 2 358 354 352 349 346 345 343 339 335 331 328 323 319 316 319 319 320 321 325 328 277 255 56 125 145 145 152 161 130 0 38 57 82 3 83 110 104 130 131 132
10 10 9 8 8 3 358 357 353 350 348 345 342 340 337 333 328 324 321 314 314 315 313 311 313 318 290 256 37 125 134 154 156 129 135 141 22 94 92 52 60 64 102 107 124 125 131
7 0 7 9 8 6 359 355 354 352 349 344 340 336 333 331 328 322 318 313 313 310 305 299 287 254 225 249 47 118 145 153 167 163 126 190 306 1 99 107 67 130 95 94 110 124 111
3 17 14 5 6 4 360 357 355 352 348 343 339 335 332 329 325 320 317 314 310 306 300 275 180 189 252 311 289 292 155 126 129 91 53 338 239 106 10 113 54 92 95 125 160 133 149
3 4 2 359 355 359 356 354 353 349 345 339 336 334 331 328 324 321 317 314 311 304 78 133 140 236 259 324 274 342 180 137 145 140 243 286 73 80 143 130 128 41 139 144 168 210 154
355 354 354 353 354 356 351 351 349 347 342 337 333 332 329 328 324 324 319 308 273 308 189 213 127 250 217 188 294 79 160 136 139 151 189 149 98 125 139 176 187 189 161 168 162 183 186
351 348 350 351 352 350 350 349 348 346 342 336 332 331 329 328 325 325 332 315 265 180 87 237 140 294 306 317 249 203 155 158 131 129 161 140 209 210 197 210 284 212 173 159 175 164 184
355 355 356 353 350 348 347 345 342 340 338 333 330 331 329 328 326 320 270 68 73 335 306 257 254 272 274 287 286 177 162 162 165 145 136 158 236 230 228 200 176 184 164 136 107 155 200
355 352 352 350 346 344 344 341 337 334 332 329 328 331 332 329 323 355 351 118 1 204 257 289 222 220 213 176 228 197 178 156 166 155 181 206 117 174 197 171 159 180 195 166 151 144 69
348 347 347 345 343 340 339 338 336 333 330 328 325 331 338 331 296 337 65 99 335 209 296 221 216 242 162 178 230 210 195 174 148 197 170 243 133 211 211 203 191 181 194 174 147 162 160
335 337 344 343 343 341 337 336 334 331 328 326 323 330 336 332 311 265 54 329 353 211 264 111 174 94 133 197 129 206 194 151 188 147 187 200 165 162 193 178 190 141 158 144 146 116 157
335 346 347 344 342 339 336 334 332 330 327 323 320 325 330 202 234 264 321 323 208 238 240 98 139 166 161 204 179 125 178 88 100 141 185 205 171 147 83 48 166 132 115 101 99 145 205
344 357 349 344 339 336 335 335 333 331 325 321 319 318 307 217 281 323 298 203 210 230 10 84 64 108 184 187 181 174 176 181 185 191 197 182 162 93 138 89 133 189 158 138 173 204 54
355 354 346 340 336 336 336 336 335 332 326 322 323 318 165 228 297 333 260 185 227 318 263 10 1 260 199 167 209 159 176 188 202 195 181 202 207 170 168 178 180 178 214 211 188 192 142
0 351 345 338 341 339 338 337 337 333 327 327 324 349 242 303 265 215 217 205 225 208 317 328 275 195 190 180 212 182 198 193 189 192 202 188 221 116 172 139 162 153 203 69 111 82 219
355 347 342 339 341 340 340 341 340 336 330 335 334 336 359 334 183 216 200 225 231 233 318 317 249 333 199 188 198 206 178 180 182 196 210 179 219 112 122 128 58 230 140 171 101 169 173
349 343 340 344 345 343 345 345 343 341 335 335 350 12 3 23 265 252 210 226 237 231 245 339 304 305 283 200 231 197 185 141 192 181 178 155 229 124 159 208 172 151 169 70 101 291 153
343 336 348 349 346 344 347 347 346 345 341 27 340 349 25 318 200 334 211 204 258 206 177 224 244 264 270 290 218 208 193 265 227 176 199 183 143 163 160 82 234 192 169 191 231 181 76
334 354 353 346 345 344 346 347 345 350 3 324 17 295 346 307 241 216 262 250 258 191 204 194 231 230 95 312 265 237 266 22 1 196 184 176 207 182 153 163 141 203 179 168 127 131 203
352 353 347 344 343 346 347 347 343 345 2 22 338 328 21 83 75 304 280 247 222 213 229 208 245 155 202 264 61 351 332 321 338 343 28 194 205 211 207 212 144 181 193 198 210 214 178
347 338 344 339 341 346 345 344 343 344 359 337 9 48 11 297 174 269 291 308 233 213 209 200 189 225 192 230 242 219 207 274 77 354 119 190 219 199 231 190 182 213 188 186 207 217 205
336 335 333 331 335 344 340 343 341 346 344 26 349 354 351 292 295 260 208 233 246 221 211 178 206 176 190 213 245 40 20 284 14 22 73 11 205 199 232 196 235 244 239 208 202 213 140
340 339 337 338 338 336 335 332 333 345 12 6 15 327 280 285 270 245 227 228 251 250 255 248 234 253 237 238 257 279 267 281 279 302 342 45 193 185 226 202 218 247 230 196 201 194 169
331 335 333 330 329 327 322 317 311 323 141 264 238 285 263 265 255 241 285 318 286 281 270 235 248 224 222 13 284 255 241 251 253 236 229 210 96 271 209 162 217 236 249 209 206 202 209
341 337 333 335 336 330 324 322 317 321 187 225 163 196 245 265 274 276 273 276 292 298 249 251 258 246 165 292 295 268 198 221 229 223 205 216 203 221 210 210 286 239 192 178 188 217 200
335 334 332 330 328 325 325 321 321 318 248 197 214 173 215 272 257 277 290 286 287 254 272 232 160 321 202 204 209 230 209 205 183 137 210 202 213 235 171 215 218 216 206 223 199 250 188
328 329 328 327 322 320 320 314 317 310 258 191 239 190 203 261 259 270 264 319 297 333 270 298 347 196 196 194 212 219 232 233 196 186 154 160 180 209 214 221 223 196 204 149 186 236 173
326 327 328 327 329 331 338 337 322 307 277 181 243 181 214 263 264 264 261 262 279 265 282 11 281 190 184 201 214 205 230 222 208 167 165 165 164 183 202 210 233 170 147 179 201 118 174
326 326 326 326 325 327 325 330 341 342 274 188 250 215 206 232 268 270 265 261 256 258 290 270 304 309 11 259 201 292 248 222 227 202 185 195 202 176 202 197 267 197 178 211 185 161 181